Regional Weather Roundup
Issued by NWS

Home | Current Version | Previous Version | Text Only | Print | Product List | Glossary On
Versions: 1 2 3 4 5 6 7 8 9 10 11 12 13 14 15 16 17 18 19 20 21 22 23 24 25 26 27 28 29 30 31 32 33 34 35 36 37 38 39 40 41 42 43 44 45 46 47 48 49 50
000
ASCA42 TJSJ 162311
RWRPR
PUERTO RICO/U.S. VIRGIN ISLANDS HOURLY WEATHER ROUNDUP
NATIONAL WEATHER SERVICE SAN JUAN PR
700 PM AST TUE SEP 16 2014

PRZ001-004-170000-
PUERTO RICO

CITY           SKY/WX    TMP DP  RH WIND       PRES   REMARKS
SAN JUAN LMM   PTCLDY    82  75  78 E9        29.94R
PONCE          PTCLDY    86  77  74 E6        29.90F HX  97
AGUADILLA      CLOUDY    81  72  74 E7        29.95S
CEIBA          PTCLDY    82  73  74 NE5       29.97R
$$

PRZ006-007-170000-
U.S. VIRGIN ISLANDS

CITY           SKY/WX    TMP DP  RH WIND       PRES   REMARKS
CHARLOTTE AMA  CLEAR     82  72  69 NE6       29.94
CHRISTIANSTED  PTCLDY    81  72  74 NE6       29.95
$$

HOURLY WEATHER ROUNDUP FOR THE NEWS MEDIA

CITY           SKY/WX    TMP DP  RH WIND       PRES   REMARKS
MIAMI          CLOUDY    84  73  69 CALM      30.01R HX  90
ORLANDO        CLOUDY    79  71  76 NW7       29.99F
NEW YORK       MOCLDY    65  58  78 CALM      29.99S
NEWARK         PTCLDY    69  51  52 N9        29.98R
CHICAGO        SUNNY     68  40  35 W9        30.09F
HARTFORD       CLOUDY    61  55  81 CALM      29.96S
BOSTON         MOCLDY    61  54  77 SE5       29.97S
DALLAS         PTSUNNY   91  65  41 E7        29.97F HX  93
PHILADELPHIA   PTCLDY    70  51  51 N9        29.99S



USA.gov is the U.S. government's official web portal to all federal, state and local government web resources and services.